Location: Praha
(50.0830°N, 14.4670°E)
Time: 16:03:32
(UTC+02:00)

ISS - Pass Details

Date: 03 October 2019
Orbit: 411 x 421 km, 51.6° (Epoch: 18 October)

Event Time Altitude Azimuth Distance (km) Brightness Sun altitude
Rises 20:32:13 0° 287° (WNW) 2,347 1.7 -19.1°
Reaches altitude 10° 20:34:21 10° 282° (WNW) 1,483 0.2 -19.4°
Maximum altitude 20:37:34 49° 207° (SSW) 542 -3.2 -19.9°
Enters shadow 20:37:40 48° 200° (SSW) 543 -3.3 -20.0°
